Date,TemperatureHighF,TemperatureAvgF,TemperatureLowF,DewpointHighF,DewpointAvgF,DewpointLowF,HumidityHigh,HumidityAvg,HumidityLow,PressureMaxIn,PressureMinIn,WindSpeedMaxMPH,WindSpeedAvgMPH,GustSpeedMaxMPH,PrecipitationSumIn
2013-1-1,34.0,27.1,21.7,19.8,14.6,11.5,74,60,41,30.20,29.94,13,5,22,0.00
2013-1-2,34.0,23.2,13.1,12.4,9.0,4.1,75,56,29,30.27,30.14,14,3,17,0.00
2013-1-3,35.2,24.7,16.2,14.9,11.0,8.2,73,57,37,30.35,30.23,5,1,9,0.00
2013-1-4,33.6,21.7,9.3,11.5,6.4,3.4,80,54,30,30.37,30.20,8,2,11,0.00
2013-1-5,41.2,29.1,21.2,9.0,6.2,4.5,51,38,22,30.37,30.24,10,3,12,0.00
2013-1-6,44.1,28.9,16.7,14.5,8.2,5.9,71,44,22,30.36,30.06,7,1,10,0.00
2013-1-7,47.3,36.4,28.8,16.3,13.3,9.5,53,39,25,30.06,29.80,13,1,18,0.00
2013-1-8,47.8,34.2,24.1,16.9,12.9,9.1,63,43,22,30.14,29.81,16,6,19,0.00
2013-1-9,51.3,36.1,23.7,16.2,12.9,10.4,57,40,22,30.33,30.01,11,3,13,0.00
2013-1-10,47.7,36.5,24.6,22.3,14.5,11.5,68,42,25,30.01,29.58,14,3,17,0.00
2013-1-11,42.8,40.4,32.5,23.7,21.1,13.1,55,46,39,29.59,29.43,21,8,26,0.00
2013-1-28,55.4,46.4,36.9,37.4,30.4,16.7,68,54,35,29.56,29.44,18,7,25,0.00
2013-1-29,37.0,31.5,26.4,21.4,14.1,3.6,71,49,28,29.88,29.48,28,8,37,0.00
2013-1-30,39.9,31.4,22.1,18.5,14.2,7.2,70,50,32,30.17,29.89,19,6,26,0.00
2013-1-31,50.5,38.8,28.0,23.5,20.5,16.3,73,50,26,30.21,30.09,16,3,18,0.00
2013-2-1,54.3,41.2,29.5,22.3,19.3,12.7,65,43,21,30.13,29.99,15,3,19,0.00
2013-2-2,54.3,42.5,31.6,21.9,19.0,14.4,62,41,22,30.21,30.09,8,2,11,0.00
2013-2-3,51.6,42.0,30.4,29.1,19.7,11.7,54,42,23,30.12,29.81,9,2,10,0.00
2013-2-4,55.9,43.7,35.1,28.9,24.7,19.6,72,49,24,29.92,29.78,13,4,15,0.00
2013-2-5,57.9,44.4,34.9,23.0,18.8,13.5,58,38,18,29.91,29.76,9,2,10,0.00
2013-2-6,59.4,45.7,31.6,27.3,20.7,15.8,56,38,27,29.80,29.63,13,3,17,0.00
2013-2-7,54.3,44.3,32.2,25.9,21.4,12.0,70,42,19,29.93,29.77,8,2,15,0.00
2013-2-8,56.5,45.5,33.1,23.4,20.1,15.1,61,38,23,29.90,29.52,18,5,26,0.00
2013-2-9,47.8,38.9,29.8,23.5,13.2,3.2,60,36,20,29.66,29.36,29,8,39,0.00
2013-2-10,41.9,33.6,26.8,21.0,14.0,8.6,68,46,26,29.84,29.66,15,4,18,0.00
2013-2-11,45.5,33.4,23.2,22.6,15.7,-0.4,76,52,15,29.91,29.77,16,4,22,0.00
2013-2-12,40.6,31.2,22.6,22.6,12.8,3.7,78,50,22,30.10,29.82,16,5,22,0.00
2013-2-13,46.8,34.6,24.4,17.6,13.4,10.4,58,43,26,30.10,29.95,13,4,18,0.00
2013-2-14,50.5,38.7,28.0,21.7,17.8,14.5,62,44,24,30.05,29.90,23,5,26,0.00
2013-2-15,50.5,39.0,26.2,21.7,12.5,-0.6,72,39,12,30.22,30.05,22,5,34,0.00
2013-2-16,56.7,43.0,30.6,12.2,7.2,-7.2,44,25,7,30.28,29.94,13,4,18,0.00
2013-2-17,59.2,43.8,26.6,7.7,2.0,-5.4,39,19,7,29.95,29.50,18,4,18,0.00
2013-2-18,50.5,41.9,34.5,16.5,-6.4,-36.0,45,18,2,29.88,29.60,18,6,23,0.00
2013-2-19,58.6,41.9,25.0,34.2,6.2,-12.3,65,27,9,29.90,29.54,22,5,31,0.00
2013-2-20,49.8,42.4,34.2,34.2,27.4,14.4,77,58,24,29.55,29.23,26,6,29,0.00
2013-2-21,45.3,35.0,27.1,27.1,23.4,17.6,90,65,33,29.75,29.33,14,4,19,0.12
2013-2-22,41.4,34.6,28.9,23.7,20.7,11.8,71,57,31,29.92,29.73,17,4,25,0.00
2013-2-23,47.5,36.5,23.7,18.5,12.1,7.2,59,38,22,29.97,29.57,15,4,18,0.00
2013-2-24,41.2,33.6,27.0,24.6,16.1,3.7,90,52,24,29.75,29.46,22,7,28,0.00
2013-2-25,47.5,34.9,23.4,24.6,12.5,1.8,89,45,15,30.00,29.75,15,4,19,0.02
2013-2-26,46.2,35.6,28.9,17.1,6.8,-11.0,57,33,11,29.96,29.67,27,6,32,0.00
2013-2-27,43.5,33.1,21.9,10.8,6.0,-1.5,59,34,15,30.18,29.96,9,2,12,0.00
2013-2-28,51.4,37.8,25.9,8.1,3.8,-8.3,41,26,8,30.23,30.09,16,5,22,0.00
2013-3-1,58.3,44.9,31.5,20.7,13.6,5.4,45,29,18,30.23,30.05,14,5,20,0.00
2013-3-2,64.4,48.8,34.7,22.8,20.8,17.8,56,35,17,30.20,29.93,10,3,19,0.00
2013-3-3,66.7,53.7,40.1,22.5,14.5,-8.0,43,24,5,29.94,29.58,13,4,21,0.00
2013-3-4,61.3,54.0,44.6,22.3,19.2,11.7,38,26,14,29.81,29.46,21,5,29,0.00
2013-3-5,59.5,46.7,30.0,21.7,17.1,7.3,65,34,13,30.07,29.82,10,3,13,0.00
2013-3-6,65.8,54.9,47.1,24.8,21.7,18.0,35,28,18,29.94,29.63,13,4,19,0.00
2013-3-7,68.4,56.2,39.6,20.1,15.9,10.0,41,22,11,29.76,29.57,14,3,19,0.00
2013-3-8,61.2,48.3,39.7,41.4,25.4,12.7,84,46,20,29.65,29.43,18,5,27,0.01
2013-3-9,44.2,38.4,33.1,34.2,24.1,16.7,86,58,33,29.82,29.53,14,5,22,0.04
2013-3-10,51.1,38.9,30.2,28.4,23.5,15.3,82,58,27,30.01,29.81,16,3,19,0.00
2013-3-11,61.2,47.1,36.7,20.7,16.2,5.4,48,32,11,30.03,29.78,15,4,20,0.00
2013-3-12,65.7,51.1,36.5,23.7,21.3,18.0,57,33,17,29.98,29.85,11,2,21,0.00
2013-3-13,68.9,53.7,38.3,26.8,21.7,14.0,57,32,14,30.09,29.91,13,2,15,0.00
2013-3-14,72.7,56.9,44.4,23.2,17.5,8.8,42,24,9,30.05,29.86,10,3,13,0.00
2013-3-15,76.8,60.9,43.2,20.8,13.6,0.1,37,18,5,29.89,29.58,8,2,12,0.00
2013-3-16,71.6,60.3,50.4,33.3,20.1,12.7,45,22,12,29.59,29.38,18,5,24,0.00
2013-3-17,68.9,55.2,44.1,36.5,18.6,-25.8,62,34,2,29.55,29.36,28,5,29,0.00
2013-3-18,66.4,53.3,40.3,12.2,4.3,-4.0,31,15,6,29.71,29.54,21,4,32,0.00
2013-3-19,61.3,51.4,43.2,16.7,9.8,-0.2,27,19,12,29.91,29.68,14,3,21,0.00
2013-3-20,62.1,49.3,33.3,27.0,17.8,14.4,51,30,17,30.00,29.61,13,3,18,0.00
2013-3-21,70.3,58.5,50.7,31.8,16.8,-14.8,45,24,3,29.61,29.29,24,6,33,0.00
2013-3-22,64.9,52.4,38.5,26.8,10.7,-0.9,40,20,7,29.51,29.30,24,4,28,0.00
2013-3-23,51.3,40.8,31.3,27.7,0.4,-22.0,49,21,6,29.89,29.42,30,8,40,0.00
2013-3-24,52.0,38.6,24.8,-1.1,-7.1,-15.2,29,14,8,30.01,29.77,26,4,27,0.00
2013-3-25,54.9,40.3,25.3,10.8,5.9,-2.0,47,25,14,30.06,29.90,17,2,23,0.00
2013-3-26,64.8,48.2,31.5,12.7,9.2,6.8,44,22,10,30.01,29.72,17,4,23,0.00
2013-3-27,70.3,59.5,47.7,13.1,8.8,-0.2,24,14,7,29.79,29.62,11,4,20,0.00
2013-3-28,71.8,61.5,48.4,23.0,13.9,4.6,26,16,8,29.78,29.64,14,3,26,0.00
2013-3-29,72.5,60.6,48.4,24.3,18.1,10.0,33,20,9,29.83,29.68,11,2,18,0.00
2013-3-30,71.2,59.4,45.1,26.1,18.9,12.7,36,22,11,29.82,29.62,14,3,20,0.00
2013-3-31,71.2,60.7,49.8,30.6,26.5,23.4,41,28,17,29.75,29.58,9,2,13,0.00
2013-4-1,73.2,62.6,48.9,26.2,16.0,-1.7,39,19,6,29.69,29.46,15,3,21,0.00
2013-4-2,64.9,56.1,46.2,23.4,15.6,-1.3,32,21,8,29.65,29.44,20,4,26,0.00
2013-4-3,65.1,51.3,38.3,30.9,25.3,16.2,67,40,15,29.85,29.65,12,3,18,0.00
2013-4-4,70.9,56.3,40.3,28.4,18.7,6.3,53,28,8,29.95,29.75,8,2,11,0.00
2013-4-5,75.2,65.3,56.5,17.4,11.3,2.5,18,12,6,29.78,29.40,16,5,24,0.00
2013-4-6,74.3,63.0,48.7,25.3,19.6,11.5,38,20,9,29.61,29.42,13,3,18,0.00
2013-4-7,73.9,63.8,50.2,26.4,18.1,9.9,36,19,9,29.52,29.33,18,4,22,0.00
2013-4-8,75.6,64.0,51.4,28.2,19.9,6.8,36,20,7,29.36,28.95,34,8,40,0.00
2013-4-9,54.3,45.2,38.3,35.4,31.2,25.9,85,59,37,29.60,28.99,22,5,27,0.04
2013-4-10,46.8,40.7,35.8,35.1,26.9,20.1,87,59,39,29.79,29.60,18,4,20,0.07
2013-4-11,63.5,47.8,31.5,30.4,24.4,17.6,66,42,24,29.82,29.60,23,5,23,0.05
2013-4-12,67.6,56.3,44.4,33.4,28.8,21.0,64,37,19,29.65,29.49,12,2,21,0.00
2013-4-13,73.0,60.1,43.3,28.4,20.4,8.6,54,25,9,29.58,29.31,19,4,24,0.00
2013-4-14,74.8,64.7,55.2,24.8,20.9,14.4,29,19,10,29.34,29.18,20,8,30,0.00
2013-4-15,79.9,65.0,48.2,25.2,16.9,2.5,37,18,5,29.37,29.16,22,6,27,0.00
2013-4-16,79.3,66.1,54.7,23.7,12.6,-16.6,26,14,2,29.40,29.20,27,8,34,0.00
2013-4-17,62.1,52.6,40.5,28.0,18.2,5.2,41,27,11,29.65,29.24,18,6,25,0.00
2013-4-18,49.8,40.5,30.7,17.1,5.0,-4.7,41,25,10,30.06,29.66,22,7,29,0.00
2013-4-19,61.7,45.3,28.8,7.2,2.8,-3.3,39,19,8,30.16,29.78,10,2,18,0.00
2013-4-20,68.5,55.8,44.4,19.2,6.4,-5.4,25,14,8,29.78,29.53,20,5,27,0.00
2013-4-21,72.5,57.8,42.1,23.0,15.4,-7.2,43,22,4,29.84,29.64,19,3,21,0.00
2013-4-22,80.8,65.6,49.5,18.5,11.5,-2.9,28,14,4,29.68,29.37,21,5,26,0.00
2013-4-23,66.7,57.5,42.4,29.5,13.1,-26.0,52,21,3,29.75,29.41,18,6,29,0.00
2013-4-24,68.0,49.5,29.8,22.6,16.1,10.6,58,31,12,29.94,29.75,8,2,11,0.00
2013-4-25,76.3,60.4,47.8,28.9,22.9,9.1,42,25,9,29.82,29.47,22,4,35,0.00
2013-4-26,74.1,60.7,46.9,31.3,17.1,-13.4,52,25,3,29.84,29.65,19,3,20,0.00
2013-4-27,75.0,61.6,45.1,28.6,9.5,-22.9,43,20,2,29.88,29.68,11,3,21,0.00
2013-4-28,79.5,64.4,46.9,12.2,0.4,-18.9,24,10,2,29.73,29.49,12,3,20,0.00
2013-4-29,83.8,68.2,49.8,19.0,9.8,0.7,21,11,4,29.55,29.30,18,3,22,0.00
2013-4-30,84.7,71.3,57.6,19.4,10.7,-6.2,21,11,3,29.41,29.25,17,4,32,0.00
2013-5-1,81.3,69.0,55.2,21.9,8.0,-15.3,26,10,4,29.73,29.35,22,5,26,0.00
2013-5-2,60.4,49.4,39.0,28.6,18.3,9.5,59,32,14,30.14,29.74,10,4,19,0.00
2013-5-3,66.6,51.0,35.1,16.9,11.9,3.6,40,23,9,30.15,29.73,10,4,18,0.00
2013-5-4,74.7,60.9,45.1,13.6,7.6,-1.3,26,13,5,29.75,29.50,25,4,30,0.00
2013-5-5,72.0,61.0,51.1,32.4,19.1,7.3,30,20,12,29.76,29.60,28,7,34,0.00
2013-5-6,69.6,61.5,54.7,38.7,26.0,16.3,45,27,17,29.65,29.57,22,4,26,0.00
2013-5-7,75.0,64.2,48.9,34.9,28.5,18.9,51,28,12,29.68,29.47,19,4,25,0.00
2013-5-8,70.0,60.4,49.6,34.0,24.1,13.8,52,28,12,29.66,29.54,18,4,25,0.00
2013-5-9,70.3,60.5,49.8,35.1,23.5,16.7,42,25,15,29.75,29.60,14,4,19,0.00
2013-5-10,65.7,57.7,49.3,42.8,36.0,31.3,65,45,28,29.96,29.72,11,3,19,0.00
2013-5-11,70.0,58.0,44.4,43.5,36.3,27.1,82,48,21,30.01,29.93,16,3,25,0.00
2013-5-12,78.6,62.9,46.9,35.1,31.0,23.9,57,33,14,30.01,29.76,16,2,25,0.00
2013-5-13,81.7,69.2,56.7,31.8,28.0,22.8,36,23,12,29.88,29.66,11,2,14,0.00
2013-5-14,83.8,70.9,57.7,41.2,24.1,11.5,38,19,10,29.70,29.44,17,3,24,0.00
2013-5-15,87.4,72.0,62.8,43.0,34.4,21.6,42,28,9,29.55,29.36,17,3,31,0.00
2013-5-16,85.3,72.4,57.2,29.7,15.9,-4.9,30,14,3,29.57,29.37,15,3,21,0.00
2013-5-17,85.3,72.4,59.2,26.1,16.4,3.4,23,13,6,29.56,29.37,23,4,31,0.00
2013-5-18,76.3,69.8,61.5,29.8,17.5,6.1,28,14,8,29.54,29.34,20,6,27,0.00
2013-5-19,74.3,64.0,55.8,35.1,28.7,14.5,45,28,11,29.54,29.44,22,6,26,0.00
2013-5-20,74.8,62.1,50.4,36.1,28.0,-1.1,55,30,5,29.61,29.45,20,5,28,0.00
2013-5-21,79.2,63.9,48.6,34.3,27.5,14.7,52,29,9,29.68,29.48,15,4,19,0.00
2013-5-22,85.1,71.6,55.0,27.7,17.0,3.7,32,15,5,29.54,29.34,14,3,19,0.00
2013-5-23,90.0,76.1,59.2,47.5,15.2,1.0,39,12,4,29.53,29.33,27,4,31,0.00
2013-5-24,87.1,74.1,59.0,44.4,29.6,12.4,48,24,7,29.60,29.42,19,4,21,0.00
2013-5-25,89.8,75.2,57.2,38.8,16.9,-10.1,24,13,2,29.62,29.37,16,3,30,0.00
2013-5-26,86.5,74.5,57.9,24.4,6.4,-26.9,23,9,1,29.58,29.38,12,3,18,0.00
2013-5-27,83.5,70.6,57.9,24.1,8.7,-7.4,23,10,3,29.55,29.37,19,3,21,0.00
2013-5-28,83.8,71.5,55.8,22.6,8.7,-15.3,23,11,2,29.43,29.16,13,3,20,0.00
2013-5-29,80.8,70.4,59.7,37.4,19.2,-9.0,38,17,3,29.32,29.16,17,5,29,0.00
2013-5-30,86.4,72.6,56.1,27.3,18.3,7.0,29,14,5,29.46,29.31,20,4,26,0.00
2013-5-31,84.9,74.1,62.2,38.3,21.4,-7.2,37,17,4,29.52,29.38,20,6,27,0.00
2013-6-1,84.9,71.1,53.1,84.0,6.4,-27.9,20,9,1,29.65,29.53,22,4,22,0.00
2013-6-2,86.4,73.8,62.1,40.8,33.8,26.2,32,24,16,29.65,29.38,19,4,33,0.00
2013-6-3,90.0,77.3,65.3,48.7,32.9,-4.0,51,26,3,29.53,29.31,15,4,22,0.00
2013-6-4,91.0,78.3,62.8,30.4,13.9,-10.1,24,10,2,29.51,29.33,12,3,21,0.00
2013-6-5,80.2,71.7,64.9,31.8,27.3,24.6,24,19,13,29.47,29.41,6,1,13,0.00
2013-6-6,88.2,80.1,71.4,43.2,34.2,21.6,34,20,10,29.57,29.42,19,5,28,0.00
2013-6-7,71.2,70.5,69.4,45.3,43.1,40.6,42,37,33,29.53,29.52,22,13,28,0.00
2013-6-11,99.3,87.8,68.4,32.0,11.3,-19.3,23,8,1,29.50,29.33,17,4,20,0.00
2013-6-12,97.0,82.6,65.3,33.3,16.9,3.0,21,10,3,29.57,29.42,9,2,17,0.00
2013-6-13,95.2,81.1,68.7,50.9,35.4,22.8,44,21,8,29.54,29.36,20,3,26,0.00
2013-6-14,90.9,78.7,67.5,54.1,47.2,37.8,52,34,16,29.49,29.33,23,4,28,0.00
2013-6-15,92.8,77.7,63.3,51.6,39.6,23.7,58,31,9,29.61,29.45,25,4,37,0.00
2013-6-16,91.9,78.4,64.9,49.6,38.9,28.9,45,26,11,29.62,29.47,21,3,28,0.00
2013-6-17,91.6,78.4,64.9,47.8,37.9,29.3,43,25,11,29.64,29.41,18,3,27,0.00
2013-6-18,89.8,77.5,65.1,51.8,44.8,33.4,59,36,14,29.61,29.37,24,7,32,0.00
2013-6-19,95.5,81.9,65.1,95.5,31.6,-22.4,42,16,1,29.46,29.24,18,4,26,0.00
2013-6-20,94.8,79.7,61.9,94.8,18.3,-25.6,20,7,1,29.49,29.30,12,2,21,0.00
2013-6-21,73.9,68.9,65.1,45.5,14.7,-4.4,42,17,5,29.52,29.43,4,1,9,0.00